When you browse on this site, cookies collect data to enhance your experience and personalize the content and advertising you see.
Visit our Privacy Policy to learn more. By continuing to use the site, you agree to this use of cookies and data.
  • In Deutschland
  • Länderverzeichnis
  • Für 7 Tage
  • Wassertemperatur
  • Satellitenkarten
  • Wetterkarte
  • Widgets
  • user-avatar
    Anmelden

    Stündliche Wetter Mykhalkove

    Heute, 18 Februar, Montag

    Zeit Temperatur Niederschläge Wind Luftdruck Luftfeuchtigkeit
    00:00 +3°C° 0 mm 4 m/S 745 mmHg 83%
    01:00 +3°C° 0 mm 4 m/S 745 mmHg 85%
    02:00 +3°C° 0 mm 3 m/S 745 mmHg 89%
    03:00 +3°C° 0 mm 3 m/S 745 mmHg 89%
    04:00 +3°C° 0 mm 3 m/S 745 mmHg 89%
    05:00 +3°C° 0 mm 3 m/S 745 mmHg 89%
    06:00 +3°C° 0 mm 3 m/S 746 mmHg 89%
    07:00 +2°C° 0 mm 3 m/S 746 mmHg 89%
    08:00 +2°C° 0 mm 3 m/S 746 mmHg 89%
    09:00 +3°C° 0 mm 3 m/S 746 mmHg 82%
    10:00 +4°C° 0 mm 3 m/S 746 mmHg 75%
    11:00 +7°C° 0 mm 3 m/S 746 mmHg 68%
    12:00 +7°C° 0 mm 3 m/S 746 mmHg 65%
    13:00 +7°C° 0 mm 2 m/S 746 mmHg 62%
    14:00 +8°C° 0 mm 2 m/S 746 mmHg 60%
    15:00 +7°C° 0 mm 2 m/S 746 mmHg 62%
    16:00 +8°C° 0 mm 1 m/S 746 mmHg 65%
    17:00 +8°C° 0 mm 1 m/S 746 mmHg 67%
    18:00 +7°C° 0 mm 1 m/S 746 mmHg 70%
    19:00 +7°C° 0 mm 1 m/S 746 mmHg 73%
    20:00 +6°C° 0 mm 1 m/S 746 mmHg 75%
    21:00 +6°C° 0 mm 1 m/S 746 mmHg 77%
    22:00 +5°C° 0 mm 1 m/S 746 mmHg 79%
    23:00 +5°C° 0 mm 1 m/S 746 mmHg 81%

    Morgen, 19 Februar, Dienstag

    Zeit Temperatur Niederschläge Wind Luftdruck Luftfeuchtigkeit
    00:00 +3°C° 0 mm 2 m/S 746 mmHg 83%
    01:00 +3°C° 0 mm 2 m/S 746 mmHg 86%
    02:00 +2°C° 0 mm 2 m/S 746 mmHg 88%
    03:00 +2°C° 0 mm 2 m/S 746 mmHg 89%
    04:00 +1°C° 0 mm 2 m/S 746 mmHg 89%
    05:00 0°C° 0 mm 3 m/S 745 mmHg 90%
    06:00 0°C° 0 mm 3 m/S 745 mmHg 89%
    07:00 0°C° 0 mm 3 m/S 745 mmHg 88%
    08:00 0°C° 0 mm 3 m/S 745 mmHg 88%
    09:00 0°C° 0 mm 4 m/S 745 mmHg 83%
    10:00 +2°C° 0 mm 5 m/S 745 mmHg 78%
    11:00 +3°C° 0 mm 5 m/S 745 mmHg 73%
    12:00 +5°C° 0 mm 5 m/S 744 mmHg 71%
    13:00 +6°C° 0 mm 5 m/S 744 mmHg 69%
    14:00 +6°C° 0 mm 5 m/S 743 mmHg 67%
    15:00 +6°C° 0 mm 5 m/S 743 mmHg 69%
    16:00 +6°C° 0 mm 4 m/S 742 mmHg 71%
    17:00 +6°C° 0 mm 4 m/S 742 mmHg 73%
    18:00 +5°C° 0 mm 3 m/S 742 mmHg 78%
    19:00 +4°C° 0 mm 3 m/S 742 mmHg 82%
    20:00 +3°C° 0 mm 3 m/S 742 mmHg 87%
    21:00 +3°C° 0 mm 3 m/S 741 mmHg 88%
    22:00 +3°C° 0 mm 3 m/S 741 mmHg 90%
    23:00 +2°C° 0 mm 3 m/S 741 mmHg 91%

    übermorgen, 20 Februar, Mittwoch

    Zeit Temperatur Niederschläge Wind Luftdruck Luftfeuchtigkeit
    00:00 +3°C° 0 mm 2 m/S 741 mmHg 92%
    01:00 +2°C° 0 mm 2 m/S 741 mmHg 93%
    02:00 +3°C° 0 mm 1 m/S 741 mmHg 94%
    03:00 +3°C° 0 mm 1 m/S 741 mmHg 94%
    04:00 +3°C° 0 mm 1 m/S 740 mmHg 94%
    05:00 +3°C° 0 mm 1 m/S 740 mmHg 94%
    06:00 +3°C° 0 mm 1 m/S 740 mmHg 92%
    07:00 +3°C° 0 mm 1 m/S 740 mmHg 89%
    08:00 +2°C° 0 mm 2 m/S 740 mmHg 87%
    09:00 +3°C° 0 mm 3 m/S 741 mmHg 80%
    10:00 +4°C° 0 mm 4 m/S 741 mmHg 72%
    11:00 +5°C° 0 mm 6 m/S 741 mmHg 65%
    12:00 +5°C° 0 mm 6 m/S 741 mmHg 65%
    13:00 +5°C° 0 mm 6 m/S 741 mmHg 66%
    14:00 +7°C° 0 mm 6 m/S 741 mmHg 66%
    15:00 +7°C° 0 mm 5 m/S 741 mmHg 66%
    16:00 +6°C° 0 mm 5 m/S 741 mmHg 67%
    17:00 +6°C° 0 mm 4 m/S 741 mmHg 67%
    18:00 +5°C° 0 mm 4 m/S 742 mmHg 70%
    19:00 +4°C° 0 mm 4 m/S 742 mmHg 73%
    20:00 +3°C° 0 mm 4 m/S 743 mmHg 77%
    21:00 +1°C° 0 mm 4 m/S 743 mmHg 77%
    22:00 +1°C° 0 mm 4 m/S 743 mmHg 78%
    23:00 +1°C° 0 mm 4 m/S 744 mmHg 78%

    21 Februar, Donnerstag

    Zeit Temperatur Niederschläge Wind Luftdruck Luftfeuchtigkeit
    00:00 +1°C° 0 mm 4 m/S 744 mmHg 79%
    01:00 +1°C° 0 mm 5 m/S 744 mmHg 80%
    02:00 +1°C° 0 mm 5 m/S 744 mmHg 80%
    03:00 +1°C° 0 mm 5 m/S 744 mmHg 81%
    04:00 +1°C° 0 mm 5 m/S 744 mmHg 83%
    05:00 0°C° 0 mm 5 m/S 744 mmHg 84%
    06:00 0°C° 0 mm 5 m/S 744 mmHg 83%
    07:00 +1°C° 0 mm 5 m/S 744 mmHg 83%
    08:00 +1°C° 0 mm 5 m/S 744 mmHg 82%
    09:00 +1°C° 0 mm 5 m/S 744 mmHg 78%
    10:00 +2°C° 0 mm 6 m/S 744 mmHg 74%
    11:00 +3°C° 0 mm 6 m/S 744 mmHg 70%
    12:00 +3°C° 0 mm 6 m/S 744 mmHg 69%
    13:00 +4°C° 0 mm 6 m/S 744 mmHg 67%
    14:00 +5°C° 0 mm 7 m/S 744 mmHg 66%
    15:00 +5°C° 0 mm 6 m/S 744 mmHg 67%
    16:00 +6°C° 0 mm 5 m/S 743 mmHg 68%
    17:00 +6°C° 0 mm 4 m/S 743 mmHg 69%
    18:00 +5°C° 0 mm 4 m/S 743 mmHg 72%
    19:00 +5°C° 0 mm 3 m/S 743 mmHg 75%
    20:00 +4°C° 0 mm 3 m/S 743 mmHg 77%
    21:00 +4°C° 0.4 mm 3 m/S 743 mmHg 80%
    22:00 +4°C° 0.4 mm 3 m/S 743 mmHg 82%
    23:00 +3°C° 0.4 mm 4 m/S 743 mmHg 84%

    22 Februar, Freitag

    Zeit Temperatur Niederschläge Wind Luftdruck Luftfeuchtigkeit
    00:00 +3°C° 0.4 mm 4 m/S 743 mmHg 85%
    01:00 +3°C° 0.4 mm 4 m/S 742 mmHg 87%
    02:00 +3°C° 0.4 mm 4 m/S 742 mmHg 88%
    03:00 +3°C° 0.3 mm 4 m/S 742 mmHg 89%
    04:00 +3°C° 0.3 mm 4 m/S 742 mmHg 90%
    05:00 +3°C° 0.3 mm 5 m/S 741 mmHg 91%
    06:00 +3°C° 0.3 mm 5 m/S 742 mmHg 91%
    07:00 +4°C° 0.3 mm 4 m/S 742 mmHg 92%
    08:00 +4°C° 0.3 mm 4 m/S 743 mmHg 92%
    09:00 +1°C° 0.3 mm 6 m/S 743 mmHg 86%
    10:00 -1°C° 0.3 mm 7 m/S 744 mmHg 81%
    11:00 -4°C° 0.3 mm 8 m/S 745 mmHg 75%
    12:00 -4°C° 0.1 mm 8 m/S 746 mmHg 70%
    13:00 -4°C° 0.1 mm 8 m/S 747 mmHg 66%
    14:00 -4°C° 0.1 mm 9 m/S 748 mmHg 61%
    15:00 -5°C° 0 mm 8 m/S 749 mmHg 59%
    16:00 -5°C° 0 mm 8 m/S 750 mmHg 56%
    17:00 -6°C° 0 mm 8 m/S 751 mmHg 53%
    18:00 -6°C° 0 mm 8 m/S 752 mmHg 52%
    19:00 -7°C° 0 mm 7 m/S 753 mmHg 51%
    20:00 -7°C° 0 mm 7 m/S 754 mmHg 49%
    21:00 -7°C° 0 mm 7 m/S 755 mmHg 50%
    22:00 -7°C° 0 mm 7 m/S 755 mmHg 50%
    23:00 -6°C° 0 mm 6 m/S 756 mmHg 50%

    23 Februar, Samstag

    Zeit Temperatur Niederschläge Wind Luftdruck Luftfeuchtigkeit
    00:00 -6°C° 0 mm 6 m/S 756 mmHg 50%
    01:00 -6°C° 0 mm 5 m/S 756 mmHg 50%
    02:00 -6°C° 0 mm 5 m/S 757 mmHg 50%
    03:00 -6°C° 0 mm 5 m/S 757 mmHg 50%
    04:00 -5°C° 0 mm 4 m/S 756 mmHg 50%
    05:00 -7°C° 0 mm 4 m/S 756 mmHg 50%
    06:00 -5°C° 0 mm 4 m/S 756 mmHg 48%
    07:00 -6°C° 0 mm 5 m/S 756 mmHg 47%
    08:00 -6°C° 0 mm 5 m/S 757 mmHg 45%
    09:00 -5°C° 0 mm 5 m/S 756 mmHg 40%
    10:00 -4°C° 0 mm 5 m/S 756 mmHg 35%
    11:00 -2°C° 0 mm 5 m/S 756 mmHg 29%
    12:00 -2°C° 0 mm 5 m/S 755 mmHg 30%
    13:00 -2°C° 0 mm 5 m/S 755 mmHg 30%
    14:00 -1°C° 0 mm 5 m/S 754 mmHg 30%
    15:00 -2°C° 0 mm 5 m/S 753 mmHg 32%
    16:00 -2°C° 0 mm 4 m/S 752 mmHg 35%
    17:00 -2°C° 0 mm 4 m/S 752 mmHg 38%
    18:00 -3°C° 0.1 mm 4 m/S 751 mmHg 49%
    19:00 -3°C° 0.1 mm 4 m/S 751 mmHg 60%
    20:00 -4°C° 0.1 mm 3 m/S 750 mmHg 71%
    21:00 -4°C° 0.2 mm 3 m/S 750 mmHg 75%
    22:00 -4°C° 0.2 mm 3 m/S 749 mmHg 79%
    23:00 -2°C° 0.2 mm 3 m/S 749 mmHg 83%
    Mehr zeigen